Weather History for Barter Island, AK

Change the Weather History Date:

Saturday, September 7, 2013

  Actual Average Record
Temperature  
Mean Temperature 35 °F -  
Max Temperature 34 °F 38 °F 48 °F (2002)
Min Temperature 33 °F 31 °F 26 °F (1996)
Degree Days  
Heating Degree Days 30    
Moisture  
Dew Point 35 °F    
Average Humidity 97    
Maximum Humidity 100    
Minimum Humidity 92    
Precipitation  
Precipitation 0.02 in - - ()
Sea Level Pressure  
Sea Level Pressure 29.84 in    
Wind  
Wind Speed 25 mph (East)    
Max Wind Speed 30 mph    
Max Gust Speed 31 mph    
Visibility 3 miles    
Events Fog , Rain    
Averages and records for this station are not official NWS values.
T = Trace of Precipitation, MM = Missing Value Source: NWS Daily Summary

Daily Weather History Graph

Daily Weather History Graph

Search for Another Location

Airport:

Trip Planner

Search our weather history database for the weather conditions in past years. The results will help you decide how hot, cold, wet, or windy it might be!

Date:

Astronomy

Sep. 07, 2013 Rise Set
Actual Time 6:15 AM AKDT 8:45 PM AKDT
Civil Twilight 5:06 AM AKDT 9:54 PM AKDT
Nautical Twilight 3:14 AM AKDT 11:41 PM AKDT
Astronomical Twilight Sun does not rise Sun does not rise
Moon 10:32 AM AKDT (9/7) 7:46 PM AKDT (9/7)
Length of Visible Light 16h 47m
Length of Day
14h 29m
Waxing Crescent, 6% of the Moon is Illuminated
Sep 7
Waxing Crescent
Sep 12
First Quarter
Sep 19
Full
Sep 26
Last Quarter
Oct 4
New

Hourly Weather History & Observations

Time (AKDT) Temp. Windchill Dew Point Humidity Pressure Visibility Wind Dir Wind Speed Gust Speed Precip Events Conditions
12:01 AM 37.0 °F 25.4 °F 36.0 °F 96% 29.84 in 0.8 mi East 25.3 mph 31.1 mph N/A Rain Light Rain
12:59 AM 37.4 °F 25.0 °F 35.6 °F 93% 29.82 in 1.0 mi East 29.9 mph - 0.00 in Rain Light Rain
1:01 AM 37.4 °F 25.4 °F 35.6 °F 93% 29.82 in 1.2 mi East 27.6 mph - 0.00 in Rain Light Rain
1:07 AM 36.0 °F 23.5 °F 36.0 °F 100% 29.82 in 1.2 mi East 27.6 mph - 0.00 in Rain Light Rain
1:27 AM 35.6 °F 22.7 °F 35.6 °F 100% 29.81 in 1.0 mi East 28.8 mph - 0.00 in   Overcast
1:34 AM 35.6 °F 23.2 °F 35.6 °F 100% 29.81 in 0.8 mi East 26.5 mph - 0.00 in   Overcast
1:58 AM 35.6 °F 23.0 °F 35.6 °F 100% 29.81 in 1.0 mi East 27.6 mph - 0.00 in Rain Light Rain
2:01 AM 36.0 °F 23.5 °F 36.0 °F 100% 29.81 in 1.0 mi East 27.6 mph - 0.00 in   Overcast
2:19 AM 35.6 °F 23.2 °F 35.6 °F 100% 29.80 in 1.5 mi East 26.5 mph - 0.00 in Rain Light Rain
2:57 AM 35.6 °F 23.4 °F 35.6 °F 100% 29.79 in 2.5 mi East 25.3 mph - 0.00 in   Overcast
3:01 AM 35.6 °F 23.0 °F 35.6 °F 100% 29.79 in 3.0 mi East 27.6 mph - 0.00 in   Overcast
3:07 AM 36.0 °F 23.9 °F 35.1 °F 97% 29.79 in 3.0 mi East 25.3 mph - 0.00 in   Overcast
3:17 AM 35.6 °F 24.0 °F 35.6 °F 100% 29.79 in 2.0 mi East 23.0 mph - N/A   Overcast
3:44 AM 35.6 °F 23.4 °F 35.6 °F 100% 29.79 in 2.0 mi East 25.3 mph - N/A   Mist
3:54 AM 35.6 °F 23.4 °F 35.6 °F 100% 29.79 in 3.0 mi East 25.3 mph - N/A   Mist
4:01 AM 35.6 °F 24.0 °F 35.6 °F 100% 29.79 in 4.0 mi East 23.0 mph - N/A   Overcast
4:20 AM 35.6 °F 24.0 °F 35.6 °F 100% 29.80 in 2.5 mi East 23.0 mph - N/A   Overcast
4:32 AM 35.6 °F 24.5 °F 35.6 °F 100% 29.80 in 3.0 mi East 20.7 mph - N/A   Overcast
4:39 AM 35.6 °F 23.7 °F 35.6 °F 100% 29.80 in 2.0 mi East 24.2 mph - N/A   Overcast
4:52 AM 35.6 °F 24.0 °F 35.6 °F 100% 29.80 in 3.0 mi East 23.0 mph - N/A   Overcast
5:01 AM 36.0 °F 24.7 °F 35.1 °F 97% 29.79 in 4.0 mi East 21.9 mph - N/A   Overcast
5:50 AM 35.6 °F 23.7 °F 35.6 °F 100% 29.79 in 2.0 mi East 24.2 mph - N/A   Overcast
6:56 AM 35.6 °F 23.4 °F 35.6 °F 100% 29.79 in 4.0 mi East 25.3 mph - N/A   Overcast
7:01 AM 36.0 °F 23.9 °F 35.1 °F 97% 29.78 in 4.0 mi East 25.3 mph - N/A   Overcast
8:01 AM 36.0 °F 23.9 °F 35.1 °F 97% 29.79 in 5.0 mi East 25.3 mph - N/A   Overcast
9:01 AM 36.0 °F 23.9 °F 35.1 °F 97% 29.80 in 5.0 mi East 25.3 mph - 0.00 in Rain Light Rain
10:01 AM 36.0 °F 24.7 °F 35.1 °F 97% 29.81 in 5.0 mi East 21.9 mph - 0.01 in Rain Light Rain
11:01 AM 36.0 °F 24.7 °F 34.0 °F 93% 29.83 in 5.0 mi East 21.9 mph - 0.01 in Rain Light Rain
12:01 PM 35.1 °F 23.3 °F 34.0 °F 96% 29.84 in 5.0 mi East 23.0 mph - 0.00 in   Overcast
1:01 PM 35.1 °F 23.5 °F 34.0 °F 96% 29.85 in 3.0 mi East 21.9 mph - 0.00 in   Overcast
2:01 PM 35.1 °F 23.5 °F 34.0 °F 96% 29.87 in 2.0 mi East 21.9 mph - 0.00 in   Overcast
2:12 PM 35.6 °F 24.8 °F 33.8 °F 93% 29.87 in 1.5 mi East 19.6 mph - N/A   Overcast
2:32 PM 35.6 °F 24.5 °F 33.8 °F 93% 29.88 in 1.0 mi East 20.7 mph - N/A   Overcast
3:01 PM 35.6 °F 24.2 °F 33.8 °F 93% 29.88 in 0.5 mi East 21.9 mph - N/A Fog Fog
3:21 PM 35.6 °F 24.2 °F 33.8 °F 93% 29.88 in 0.2 mi East 21.9 mph - N/A Fog , Rain Light Rain
4:01 PM 35.1 °F 23.3 °F 34.0 °F 96% 29.89 in 0.2 mi East 23.0 mph - N/A Fog , Rain Light Rain
4:56 PM 33.8 °F 21.9 °F 33.8 °F 100% 29.89 in 0.5 mi East 21.9 mph - 0.00 in Fog Fog
5:01 PM 34.0 °F 21.8 °F 34.0 °F 100% 29.89 in 0.5 mi East 23.0 mph - 0.00 in Fog Fog
5:34 PM 33.8 °F 21.3 °F 33.8 °F 100% 29.89 in 1.0 mi East 24.2 mph - 0.00 in Rain Light Rain
5:40 PM 33.8 °F 21.6 °F 33.8 °F 100% 29.89 in 2.0 mi East 23.0 mph - 0.00 in   Overcast
5:49 PM 33.8 °F 21.9 °F 33.8 °F 100% 29.89 in 4.0 mi East 21.9 mph - 0.00 in   Overcast
6:01 PM 33.8 °F 21.3 °F 33.8 °F 100% 29.90 in 4.0 mi East 24.2 mph - 0.00 in   Overcast
7:01 PM 35.1 °F 23.5 °F 33.1 °F 92% 29.90 in 5.0 mi East 21.9 mph - 0.00 in   Overcast
8:01 PM 34.0 °F 21.8 °F 33.1 °F 96% 29.91 in 5.0 mi East 23.0 mph - N/A   Overcast
9:01 PM 35.1 °F 23.3 °F 33.1 °F 92% 29.91 in 4.0 mi East 23.0 mph - N/A   Overcast
9:23 PM 35.6 °F 24.2 °F 33.8 °F 93% 29.91 in 2.0 mi East 21.9 mph - N/A   Overcast
9:41 PM 35.6 °F 24.8 °F 33.8 °F 93% 29.92 in 4.0 mi East 19.6 mph - N/A   Overcast
10:01 PM 35.1 °F 24.1 °F 33.1 °F 92% 29.92 in 4.0 mi East 19.6 mph - N/A   Overcast
11:01 PM 34.0 °F 22.1 °F 33.1 °F 96% 29.92 in 4.0 mi East 21.9 mph - N/A   Overcast